DW2537 Weather Reports


Display with metric or nautical units.
time (UTC)temp
F
wind
direction
speed
MPH
gust
MPH
rain 1hr
in
rain 24hr
in
rain mn
in
humidity
%
barometer
mb
20260904190038 91 0 1.0 9.0 0.00 0.18 0.18 63 1012.7
20260904185521 91 117 2.0 9.0 0.00 0.18 0.18 57 1012.8
20260904185020 91 236 2.0 5.0 0.00 0.18 0.18 58 1012.9
20260904184602 91 274 1.0 8.0 0.00 0.18 0.18 58 1013.0
20260904184019 91 144 1.0 9.0 0.00 0.18 0.18 57 1013.0
20260904183519 91 153 2.0 9.0 0.00 0.18 0.18 58 1013.0
20260904183042 90 263 2.0 6.0 0.00 0.18 0.18 59 1013.2
20260904181539 90 155 1.0 10.0 0.00 0.18 0.18 60 1013.1
20260904181022 90 291 2.0 10.0 0.00 0.18 0.18 60 1013.1
20260904180519 90 167 1.0 4.0 0.00 0.18 0.18 62 1013.1
20260904180039 90 12 0.0 6.0 0.00 0.18 0.18 60 1013.1
20260904175521 90 0 1.0 6.0 0.00 0.18 0.18 65 1013.1
20260904174609 89 273 1.0 7.0 0.00 0.18 0.18 61 1013.1
20260904173046 89 280 1.0 7.0 0.00 0.18 0.18 63 1013.2
20260904171539 88 198 1.0 6.0 0.00 0.18 0.18 64 1013.3
20260904171018 88 279 1.0 6.0 0.00 0.18 0.18 69 1013.4
20260904170521 87 146 2.0 6.0 0.00 0.18 0.18 65 1013.4
20260904170046 87 215 1.0 7.0 0.00 0.18 0.18 64 1013.5
20260904165520 87 281 1.0 7.0 0.00 0.18 0.18 68 1013.5
20260904165020 87 201 1.0 10.0 0.00 0.18 0.18 63 1013.6
20260904164539 87 279 1.0 10.0 0.00 0.18 0.18 68 1013.7
20260904163050 86 5 1.0 6.0 0.00 0.18 0.18 68 1013.9
20260904161538 85 224 1.0 5.0 0.00 0.18 0.18 69 1014.1
20260904160521 85 0 0.0 6.0 0.00 0.18 0.18 69 1014.2
20260904160039 85 275 2.0 6.0 0.00 0.18 0.18 68 1014.2
20260904155520 85 39 2.0 8.0 0.00 0.18 0.18 71 1014.1
20260904155021 85 154 2.0 8.0 0.00 0.18 0.18 73 1014.2
20260904154541 84 184 1.0 7.0 0.00 0.18 0.18 69 1014.2
20260904153041 84 188 1.0 7.0 0.00 0.18 0.18 75 1014.4
20260904152523 84 301 0.0 7.0 0.00 0.18 0.18 75 1014.3
20260904152020 83 216 1.0 6.0 0.00 0.18 0.18 71 1014.3
20260904151539 83 286 1.0 5.0 0.00 0.18 0.18 74 1014.4
20260904151020 83 285 0.0 8.0 0.00 0.18 0.18 70 1014.4
20260904150521 83 77 0.0 8.0 0.00 0.18 0.18 76 1014.4
20260904150045 82 0 1.0 7.0 0.00 0.18 0.18 74 1014.4
20260904144542 81 0 1.0 4.0 0.00 0.18 0.18 80 1014.6
20260904143038 80 49 0.0 6.0 0.00 0.18 0.18 82 1014.7
20260904142520 80 261 0.0 6.0 0.00 0.18 0.18 81 1014.6
20260904142020 79 25 1.0 6.0 0.00 0.18 0.18 81 1014.4
20260904141539 79 126 1.0 4.0 0.00 0.18 0.18 80 1014.3
20260904140041 78 9 0.0 7.0 0.00 0.18 0.18 79 1014.3
20260904134553 77 232 1.0 4.0 0.00 0.18 0.18 89 1014.3
20260904134021 77 42 0.0 3.0 0.00 0.18 0.18 89 1014.4
20260904133051 76 145 0.0 4.0 0.00 0.18 0.18 89 1014.4
20260904131546 75 211 0.0 5.0 0.00 0.18 0.18 94 1014.3
20260904130045 74 119 0.0 2.0 0.00 0.18 0.18 96 1014.2
20260904124547 73 277 0.0 3.0 0.00 0.18 0.18 96 1014.3
20260904123047 72 0 0.0 3.0 0.00 0.18 0.18 97 1014.3
20260904121546 72 230 0.0 2.0 0.00 0.18 0.18 97 1014.4
20260904120046 72 144 0.0 3.0 0.00 0.18 0.18 97 1014.2
20260904114539 71 0 0.0 2.0 0.00 0.19 0.18 97 1014.3
20260904113518 71 162 0.0 3.0 0.00 0.19 0.18 97 1014.1
20260904113048 71 0 0.0 3.0 0.00 0.19 0.18 97 1014.2
20260904111546 71 0 0.0 3.0 0.00 0.19 0.18 97 1014.2
20260904110618 71 194 0.0 2.0 0.00 0.19 0.18 97 1013.9
20260904110041 71 157 0.0 2.0 0.00 0.19 0.18 97 1013.9
20260904104539 71 178 0.0 1.0 0.00 0.19 0.18 97 1013.9
20260904104024 71 0 0.0 2.0 0.00 0.19 0.18 97 1013.8
20260904103520 71 0 0.0 3.0 0.00 0.19 0.18 97 1013.7
20260904103038 71 0 0.0 3.0 0.00 0.19 0.18 97 1013.6
20260904102521 71 166 0.0 3.0 0.00 0.19 0.18 97 1013.7
20260904101541 71 0 0.0 2.0 0.00 0.19 0.18 97 1013.6
20260904100043 71 0 0.0 2.0 0.00 0.19 0.18 97 1013.7
20260904094539 71 0 0.0 2.0 0.00 0.19 0.18 97 1013.8
20260904094020 71 0 0.0 2.0 0.00 0.19 0.18 97 1013.7
20260904093519 71 0 0.0 1.0 0.00 0.19 0.18 97 1013.7
20260904093055 71 0 0.0 1.0 0.00 0.19 0.18 97 1013.5
20260904092519 71 0 0.0 1.0 0.00 0.19 0.18 97 1013.2
20260904091541 71 0 0.0 1.0 0.00 0.19 0.18 97 1013.1
20260904090042 70 0 0.0 2.0 0.00 0.19 0.18 96 1013.0
20260904085019 70 0 0.0 1.0 0.00 0.19 0.18 96 1013.1
20260904084539 71 0 0.0 1.0 0.00 0.19 0.18 96 1013.0
20260904084021 71 0 0.0 1.0 0.00 0.19 0.18 96 1013.0
20260904083518 71 0 0.0 2.0 0.00 0.19 0.18 96 1013.1
20260904083040 71 0 0.0 2.0 0.00 0.19 0.18 96 1013.3
20260904081540 71 0 0.0 1.0 0.00 0.19 0.18 96 1013.3
20260904081022 71 0 0.0 1.0 0.00 0.19 0.18 96 1013.3
20260904080518 71 0 0.0 2.0 0.00 0.19 0.18 96 1013.4
20260904080038 71 0 0.0 2.0 0.00 0.19 0.18 96 1013.4
20260904075518 71 159 0.0 2.0 0.00 0.19 0.18 96 1013.5
20260904075020 71 0 0.0 2.0 0.00 0.19 0.18 96 1013.6
20260904074544 71 96 0.0 1.0 0.00 0.19 0.18 96 1013.6
20260904073052 71 151 0.0 2.0 0.00 0.19 0.18 96 1013.8
20260904071539 71 0 0.0 2.0 0.00 0.19 0.18 96 1013.5
20260904070520 71 0 0.0 1.0 0.00 0.19 0.18 96 1013.4
20260904070040 71 0 0.0 1.0 0.00 0.19 0.18 96 1013.2
20260904065520 71 0 0.0 1.0 0.00 0.19 0.18 96 1013.3
20260904065020 71 125 0.0 1.0 0.00 0.19 0.18 96 1013.2
20260904064537 71 0 0.0 1.0 0.00 0.19 0.18 96 1013.1
20260904063045 71 116 0.0 2.0 0.00 0.19 0.18 96 1013.2
20260904061538 72 148 0.0 5.0 0.00 0.19 0.18 95 1013.2
20260904060521 72 160 0.0 4.0 0.00 0.19 0.18 96 1013.2
20260904060040 72 0 1.0 4.0 0.00 0.19 0.18 96 1013.2
20260904055525 72 0 0.0 2.0 0.00 0.19 0.18 95 1013.1
20260904055019 72 0 0.0 1.0 0.00 0.19 0.18 95 1013.1
20260904054539 72 0 0.0 2.0 0.00 0.19 0.18 95 1013.0
20260904053039 72 0 0.0 1.0 0.01 0.19 0.18 95 1012.4
20260904052019 72 215 0.0 4.0 0.04 0.19 0.18 94 1012.8
20260904051540 72 262 1.0 4.0 0.07 0.19 0.18 94 1013.0
20260904051020 72 154 1.0 3.0 0.18 0.19 0.18 93 1013.2
20260904050520 72 158 0.0 3.0 0.18 0.19 0.18 93 1013.5
20260904050039 72 0 0.0 3.0 0.18 0.19 0.18 93 1013.7
20260904045520 73 178 0.0 2.0 0.18 0.19 0.18 92 1013.9
20260904044541 73 105 1.0 6.0 0.18 0.19 0.18 91 1014.0
20260904043042 75 157 1.0 11.0 0.17 0.18 0.17 88 1014.8
20260904042019 77 19 3.0 13.0 0.14 0.15 0.14 82 1015.2
20260904041555 80 36 3.0 13.0 0.09 0.10 0.09 83 1015.2
20260904040048 81 219 1.0 9.0 0.00 0.01 0.00 78 1013.5
20260904034547 80 0 0.0 5.0 0.00 0.01 0.01 79 1013.3
20260904033059 79 30 0.0 4.0 0.00 0.01 0.01 89 1013.6
20260904031540 80 0 0.0 0.0 0.00 0.01 0.01 89 1013.4
20260904030525 80 0 0.0 0.0 0.00 0.01 0.01 89 1013.4
20260904030046 80 0 0.0 1.0 0.00 0.01 0.01 89 1013.6
20260904024546 80 0 0.0 1.0 0.00 0.01 0.01 88 1013.6
20260904023046 80 0 0.0 1.0 0.00 0.01 0.01 87 1013.8
20260904021541 81 0 0.0 2.0 0.00 0.01 0.01 87 1013.7
20260904021022 81 182 0.0 2.0 0.00 0.01 0.01 87 1013.6
20260904020521 81 198 0.0 1.0 0.00 0.01 0.01 87 1013.7
20260904020100 81 0 0.0 1.0 0.00 0.01 0.01 87 1013.8
20260904014631 81 0 0.0 1.0 0.00 0.01 0.01 86 1013.8
20260904013051 81 0 0.0 1.0 0.00 0.01 0.01 85 1013.5
20260904011540 82 0 0.0 1.0 0.00 0.01 0.01 85 1013.5
20260904010518 82 0 0.0 0.0 0.00 0.01 0.01 84 1013.7
20260904010040 82 0 0.0 0.0 0.00 0.01 0.01 84 1013.8
20260904005521 82 0 0.0 0.0 0.00 0.01 0.01 83 1013.9
20260904005020 82 0 0.0 1.0 0.00 0.01 0.01 83 1013.9
20260904004541 82 0 0.0 1.0 0.00 0.01 0.01 83 1014.0
20260904003048 83 0 0.0 1.0 0.00 0.01 0.01 82 1014.1
20260904002518 83 209 0.0 1.0 0.00 0.01 0.01 81 1014.0
20260904002021 83 0 0.0 1.0 0.00 0.01 0.01 81 1014.1
20260904001538 83 0 0.0 4.0 0.00 0.01 0.01 81 1014.2
20260904001020 83 0 0.0 4.0 0.00 0.01 0.01 81 1014.1
20260904000520 83 0 0.0 1.0 0.00 0.01 0.01 80 1014.1
20260904000047 84 176 0.0 1.0 0.00 0.01 0.01 80 1013.8
20260903234541 84 0 0.0 2.0 0.00 0.01 0.01 79 1013.6
20260903233039 85 0 0.0 1.0 0.00 0.01 0.01 78 1013.3
20260903232018 85 0 0.0 1.0 0.00 0.01 0.01 77 1013.2
20260903231539 86 0 0.0 1.0 0.00 0.01 0.01 76 1013.4
20260903231023 86 0 0.0 1.0 0.00 0.01 0.01 75 1013.3
20260903230522 86 0 0.0 1.0 0.00 0.01 0.01 75 1013.2
20260903230049 87 0 0.0 1.0 0.00 0.01 0.01 74 1013.3
20260903224539 88 0 0.0 2.0 0.00 0.01 0.01 71 1013.2
20260903223045 89 0 0.0 3.0 0.00 0.01 0.01 70 1013.2
20260903222520 89 238 0.0 3.0 0.00 0.01 0.01 69 1013.2
20260903222021 89 212 0.0 2.0 0.00 0.01 0.01 68 1013.2
20260903221548 90 178 0.0 2.0 0.00 0.01 0.01 67 1013.1
20260903220042 90 212 0.0 6.0 0.00 0.01 0.01 65 1013.2
20260903214544 90 0 0.0 3.0 0.00 0.01 0.01 64 1013.2
20260903213522 91 233 0.0 5.0 0.00 0.01 0.01 65 1013.2
20260903213043 90 183 0.0 4.0 0.00 0.01 0.01 61 1013.2
20260903212520 90 109 1.0 4.0 0.00 0.01 0.01 63 1013.2
20260903212023 91 0 1.0 6.0 0.00 0.01 0.01 63 1013.3
20260903211545 91 139 1.0 6.0 0.00 0.01 0.01 64 1013.2
20260903210040 91 202 2.0 5.0 0.00 0.01 0.01 64 1013.2
20260903205520 91 207 1.0 7.0 0.00 0.01 0.01 62 1013.3
20260903204539 91 298 1.0 4.0 0.00 0.01 0.01 63 1013.4
20260903204020 91 182 1.0 4.0 0.00 0.01 0.01 62 1013.5
20260903203522 91 272 1.0 4.0 0.00 0.01 0.01 65 1013.6
20260903203039 91 39 0.0 4.0 0.00 0.01 0.01 63 1013.6
20260903202519 91 188 1.0 4.0 0.00 0.01 0.01 62 1013.7
20260903202020 91 223 0.0 10.0 0.00 0.01 0.01 61 1013.8
20260903201545 91 171 1.0 10.0 0.00 0.01 0.01 63 1013.9
20260903200043 90 55 2.0 6.0 0.00 0.01 0.01 64 1014.0
20260903194540 88 54 2.0 7.0 0.00 0.01 0.01 65 1014.2
20260903193521 87 165 0.0 7.0 0.00 0.01 0.01 71 1014.4
20260903193039 87 162 1.0 7.0 0.00 0.01 0.01 70 1014.5
20260903192521 86 98 1.0 6.0 0.00 0.01 0.01 70 1014.6
20260903192021 86 0 0.0 3.0 0.00 0.01 0.01 69 1014.7
20260903191538 86 273 0.0 3.0 0.00 0.01 0.01 66 1014.7